Wind_Speed
37 38 40 43 45 48 49 51 52 53 55 56 57 58 58 60 62 64 66 67 67 65 62 58 56 55 53 51 50 48 47 45 43 41 39 36 33 30 27 25 23 23 23
39 41 44 47 49 51 52 54 56 57 58 59 60 61 63 63 64 66 68 70 71 71 70 66 62 59 57 55 53 52 50 49 46 44 42 39 36 33 30 27 25 24 24
42 44 47 49 51 53 55 57 59 59 59 59 60 62 64 65 67 68 70 72 73 74 75 74 70 65 61 59 58 55 53 52 50 47 44 41 38 35 32 29 27 26 25
44 47 49 51 53 55 57 58 59 59 59 58 59 61 63 64 66 67 70 73 75 76 76 77 77 73 67 62 60 59 57 54 52 50 47 44 41 38 34 32 29 27 26
46 49 51 53 54 56 58 59 59 58 57 57 58 59 61 63 64 65 67 70 73 76 77 78 79 79 74 69 62 60 60 58 55 53 50 47 43 40 37 34 31 29 28
48 51 52 54 55 57 57 57 55 53 52 51 52 53 56 59 61 62 64 66 68 71 74 76 78 80 79 76 69 63 59 58 57 55 52 49 46 43 39 36 33 30 29
50 52 54 54 56 56 56 54 50 47 46 45 45 46 49 52 54 57 60 61 63 64 67 71 75 78 79 78 77 69 62 57 57 56 55 52 48 45 42 38 35 32 30
52 53 54 54 56 55 54 50 46 42 39 37 36 37 40 44 48 50 53 55 56 57 59 62 68 73 76 77 77 75 69 61 56 56 54 52 50 48 44 41 37 33 31
52 53 53 54 55 54 52 47 42 37 33 30 29 30 33 36 41 44 44 46 48 49 52 54 58 64 71 75 75 74 72 69 61 56 54 53 51 49 46 42 38 35 32
52 52 52 52 53 52 49 44 39 34 29 25 22 23 25 29 34 38 39 39 42 43 45 46 50 54 61 68 71 71 72 71 67 61 56 52 51 49 47 43 39 36 33
51 51 51 51 51 50 46 41 36 31 26 20 16 17 20 24 29 32 34 35 36 38 39 40 41 45 52 58 63 66 68 69 68 65 59 55 51 49 46 44 40 37 34
50 50 49 50 49 47 43 39 34 29 23 16 11 11 16 20 24 27 30 32 33 33 35 36 37 38 41 47 53 58 63 66 66 65 62 57 54 49 45 43 41 37 35
48 48 48 48 47 45 41 37 32 27 21 14 8 6 11 16 21 24 27 30 30 31 32 33 32 32 34 38 43 49 55 60 64 65 63 57 54 51 47 44 41 38 36
46 47 48 46 44 43 39 35 30 25 19 13 7 4 9 12 16 20 24 27 28 28 29 29 29 28 29 31 35 41 47 53 59 62 61 58 53 51 48 44 41 38 37
45 46 46 45 43 40 37 34 29 24 19 13 7 2 6 10 14 18 23 25 25 26 27 27 26 26 26 28 31 35 40 46 53 57 59 57 53 50 48 45 42 40 38
43 44 44 44 42 39 36 32 28 23 19 14 8 1 6 10 13 17 21 23 24 25 25 25 25 25 26 27 30 33 36 43 50 55 57 57 53 50 47 45 43 41 38
41 42 42 42 40 37 34 31 27 23 18 13 9 2 4 9 12 16 18 20 22 23 23 24 24 24 25 27 29 32 35 41 48 53 54 55 52 49 47 45 43 41 39
39 40 41 41 39 36 33 30 26 21 17 12 8 3 3 8 12 14 15 16 18 20 22 23 23 24 25 26 28 31 36 42 48 52 53 53 51 49 47 45 43 41 39
38 38 39 39 37 35 32 28 24 20 15 11 7 4 4 8 10 13 14 15 16 18 20 22 22 23 23 25 28 32 38 44 49 52 52 51 49 48 47 44 43 41 40
36 36 37 37 35 34 31 28 23 19 14 10 6 3 4 7 9 11 13 14 14 16 18 19 20 21 22 25 28 33 39 47 50 51 52 51 49 47 45 44 43 41 38
34 34 35 35 34 33 31 28 23 17 14 9 5 3 4 6 8 10 11 12 12 13 15 16 17 19 21 23 29 35 42 48 50 51 52 50 47 46 45 43 41 39 36
32 32 33 34 33 32 30 28 24 18 14 10 6 3 4 6 8 9 10 10 11 11 12 13 15 17 18 23 30 38 43 46 49 49 50 48 45 44 41 39 38 36 35
29 30 31 32 32 31 29 27 24 20 16 11 8 5 4 6 7 9 9 9 9 10 10 11 14 16 19 26 31 37 41 44 47 47 46 44 42 40 38 37 36 35 33
27 27 29 30 30 29 28 26 23 21 17 14 10 7 6 6 7 8 8 9 9 9 10 12 14 18 22 27 32 35 38 42 45 45 43 40 38 36 34 33 33 32 31
25 24 26 27 28 28 27 25 23 20 18 15 13 10 8 7 7 7 8 8 10 11 11 13 16 19 23 27 33 35 37 41 42 42 40 37 35 33 31 30 30 30 29
23 22 22 24 25 26 26 25 23 21 19 17 15 13 10 9 8 8 8 9 10 11 13 15 19 23 27 29 32 34 37 38 38 38 36 34 32 30 28 27 27 27 26
Wind_Direction
302 300 298 296 294 292 289 286 283 279 275 271 267 262 258 253 249 247 245 242 241 240 238 237 236 235 233 232 232 231 231 232 232 231 230 230 232 235 241 247 254 259 263
306 304 303 302 300 297 293 290 287 282 278 273 268 263 258 253 249 246 243 241 240 239 238 236 234 234 233 232 231 231 231 231 232 233 232 231 232 234 238 244 250 257 261
310 309 308 307 305 302 299 295 291 285 279 273 267 262 258 253 249 245 243 241 239 238 238 236 235 234 233 232 231 230 231 231 231 233 233 232 232 233 236 240 247 253 259
314 314 313 312 309 307 303 298 293 287 280 274 267 261 256 252 249 246 243 240 238 237 236 235 235 234 233 232 230 228 228 229 229 231 232 232 232 233 235 238 244 250 255
318 318 317 315 313 311 308 302 296 290 283 276 268 262 257 252 248 246 244 241 239 237 235 234 234 234 233 231 229 227 227 227 228 228 230 231 231 232 234 237 242 248 252
323 323 321 319 317 316 313 308 302 295 287 280 271 262 255 250 246 244 242 241 239 237 235 234 233 232 232 231 230 228 225 225 225 225 227 229 230 230 232 235 239 244 248
326 326 325 324 322 320 318 314 309 301 292 283 273 262 253 247 243 240 239 238 237 236 235 234 233 232 231 231 231 229 228 225 224 224 226 227 228 229 230 232 236 240 244
330 329 329 328 327 326 323 321 316 309 299 288 274 261 252 243 238 236 235 233 233 233 233 233 232 232 231 230 231 231 231 227 222 221 222 223 225 226 227 229 232 237 241
333 333 332 332 332 331 330 327 323 317 308 295 278 262 250 240 233 230 230 228 228 229 230 230 231 232 231 230 230 231 231 230 227 224 222 221 222 223 224 225 229 233 238
335 336 336 335 336 336 335 333 330 325 316 302 283 261 245 236 228 225 223 222 223 222 223 225 228 229 230 230 230 230 230 230 230 228 225 223 221 221 221 222 226 230 234
337 338 338 339 339 340 340 339 336 333 327 314 291 260 239 229 223 220 217 216 216 215 216 216 220 225 227 229 229 229 229 229 230 230 228 225 223 221 220 220 223 227 231
340 341 341 342 343 344 345 344 343 341 338 328 303 257 232 223 217 215 213 209 207 208 209 210 213 218 222 224 226 227 227 227 226 228 227 226 223 221 219 218 220 223 228
342 344 345 345 346 348 348 348 348 346 344 338 321 253 221 216 213 211 208 203 202 202 203 203 207 212 215 219 222 224 225 225 224 225 225 224 224 222 219 218 218 221 224
344 346 348 348 349 350 351 352 352 353 350 344 330 257 213 207 204 202 199 197 197 198 200 201 204 208 212 215 218 221 223 223 221 221 221 221 221 219 217 216 216 219 222
345 348 350 351 352 352 354 355 356 356 356 353 340 271 204 196 194 191 190 192 195 198 200 201 203 208 213 217 219 220 221 219 216 214 215 216 217 215 214 214 214 216 220
347 349 351 353 355 355 356 357 359 360 360 360 358 314 195 191 190 189 190 193 196 198 200 203 207 212 217 222 223 222 220 216 211 209 208 210 211 211 211 212 213 215 218
348 350 353 355 357 358 359 360 1 3 4 6 8 23 176 185 187 187 190 194 198 202 206 209 213 218 222 225 224 221 216 209 203 200 200 203 205 206 207 209 210 213 217
349 352 354 356 358 360 1 2 3 4 6 10 16 35 153 171 177 182 188 194 200 204 207 212 218 223 227 227 223 217 207 199 194 192 193 195 198 202 205 207 209 212 215
351 354 356 357 360 2 3 3 4 7 8 13 24 60 143 167 178 187 192 195 200 204 209 215 221 224 226 222 214 206 197 190 186 185 188 191 194 198 202 205 208 210 213
352 355 357 359 1 4 5 5 5 7 10 15 30 73 135 163 176 184 190 196 202 207 211 214 217 220 218 210 205 199 191 184 180 181 185 188 191 195 199 203 206 209 212
353 356 358 0 3 5 7 7 8 9 12 17 30 85 137 160 171 180 188 195 201 203 206 209 212 214 210 205 197 190 185 182 178 179 183 186 188 192 196 200 203 207 210
354 357 359 1 4 7 10 12 14 16 19 24 35 87 137 153 165 173 180 187 192 195 197 199 202 201 199 192 188 185 182 179 176 178 180 182 186 191 195 199 203 206 209
354 357 0 3 6 9 12 16 20 24 27 34 46 74 121 147 159 166 169 172 177 183 184 181 180 182 185 182 179 179 178 175 174 178 180 182 185 189 194 199 203 207 210
353 357 1 5 8 12 15 18 22 27 32 38 48 66 101 125 145 158 166 171 174 176 171 165 167 170 173 174 173 174 174 173 174 176 177 180 184 188 194 199 203 207 211
352 356 1 6 10 14 17 21 26 30 34 41 49 62 85 109 126 142 152 161 165 164 161 161 165 165 165 168 170 168 167 169 172 174 177 180 185 191 195 201 205 209 212
350 354 359 4 10 15 19 24 30 35 39 45 51 61 78 97 114 129 138 143 150 153 153 153 154 156 158 162 166 166 166 169 172 175 180 185 189 194 198 201 205 208 213
Height
5720 5715 5710 5706 5700 5695 5690 5686 5682 5678 5676 5674 5672 5672 5673 5675 5678 5682 5686 5691 5697 5702 5708 5715 5721 5727 5732 5738 5745 5751 5756 5762 5767 5773 5777 5781 5785 5789 5792 5795 5798 5800 5802
5709 5703 5697 5691 5685 5678 5672 5666 5661 5656 5653 5650 5649 5649 5650 5652 5656 5660 5665 5670 5677 5684 5690 5698 5705 5711 5718 5725 5731 5738 5745 5751 5757 5762 5768 5773 5778 5782 5785 5789 5791 5794 5796
5697 5690 5683 5676 5668 5660 5652 5644 5637 5632 5628 5625 5623 5623 5625 5627 5631 5636 5642 5648 5655 5663 5671 5679 5687 5694 5702 5709 5717 5724 5732 5739 5746 5752 5758 5764 5769 5774 5778 5781 5784 5787 5789
5684 5677 5669 5660 5650 5641 5631 5622 5614 5607 5602 5599 5598 5598 5599 5602 5606 5611 5618 5625 5633 5641 5650 5659 5668 5677 5686 5693 5700 5709 5717 5725 5733 5741 5748 5754 5760 5765 5770 5774 5777 5780 5783
5672 5663 5654 5644 5633 5622 5611 5600 5590 5582 5576 5572 5571 5571 5573 5577 5582 5588 5594 5601 5610 5619 5629 5638 5648 5658 5669 5677 5685 5693 5702 5711 5720 5728 5736 5744 5751 5756 5761 5766 5770 5773 5776
5660 5650 5639 5628 5617 5604 5592 5579 5567 5558 5551 5546 5544 5545 5548 5553 5559 5566 5572 5580 5589 5599 5608 5618 5628 5638 5650 5661 5670 5679 5687 5696 5706 5715 5724 5732 5741 5747 5752 5757 5762 5766 5769
5647 5636 5625 5613 5601 5587 5573 5559 5547 5537 5530 5525 5522 5523 5526 5531 5537 5545 5552 5561 5570 5580 5590 5599 5609 5620 5631 5642 5654 5664 5673 5683 5693 5702 5711 5721 5729 5737 5743 5748 5753 5758 5762
5636 5624 5612 5599 5586 5572 5557 5543 5531 5521 5513 5507 5504 5504 5507 5513 5519 5527 5535 5545 5555 5564 5574 5583 5592 5603 5614 5625 5636 5648 5659 5670 5680 5690 5700 5709 5717 5725 5732 5739 5745 5750 5754
5625 5613 5600 5587 5573 5559 5544 5531 5519 5509 5501 5495 5492 5491 5493 5498 5505 5513 5522 5532 5542 5551 5560 5569 5578 5587 5597 5610 5622 5635 5647 5657 5667 5677 5687 5696 5705 5714 5722 5730 5736 5741 5745
5616 5604 5591 5577 5563 5549 5534 5522 5510 5501 5492 5486 5483 5483 5485 5489 5495 5503 5512 5522 5532 5541 5551 5559 5567 5575 5583 5594 5607 5619 5631 5643 5655 5666 5675 5685 5694 5703 5712 5720 5727 5733 5738
5608 5596 5583 5569 5555 5541 5528 5516 5505 5495 5487 5481 5478 5477 5479 5483 5489 5497 5506 5515 5524 5532 5541 5549 5557 5564 5573 5583 5595 5606 5617 5629 5642 5654 5665 5675 5684 5694 5703 5711 5719 5725 5731
5601 5589 5576 5563 5550 5536 5523 5512 5501 5492 5485 5479 5476 5476 5477 5481 5487 5494 5502 5510 5518 5526 5534 5542 5550 5557 5565 5574 5584 5594 5604 5617 5630 5642 5654 5665 5675 5685 5695 5703 5710 5717 5723
5595 5583 5571 5558 5545 5533 5521 5510 5500 5492 5485 5480 5477 5477 5478 5482 5486 5492 5499 5507 5515 5523 5530 5538 5545 5552 5559 5567 5575 5583 5593 5605 5618 5631 5645 5656 5666 5676 5686 5694 5701 5708 5714
5590 5579 5567 5555 5543 5531 5520 5509 5500 5492 5486 5481 5479 5478 5479 5482 5486 5491 5497 5505 5512 5519 5527 5534 5541 5547 5554 5561 5567 5575 5584 5595 5607 5620 5633 5646 5657 5667 5677 5686 5694 5701 5707
5587 5576 5564 5553 5541 5530 5520 5510 5501 5494 5488 5483 5480 5479 5480 5483 5487 5491 5497 5504 5511 5517 5524 5531 5538 5544 5549 5555 5561 5568 5576 5585 5596 5609 5622 5635 5648 5659 5669 5678 5687 5694 5701
5584 5573 5562 5551 5540 5530 5520 5511 5503 5496 5490 5486 5483 5482 5482 5485 5488 5493 5498 5504 5510 5516 5522 5528 5534 5539 5544 5549 5555 5561 5568 5576 5586 5598 5612 5627 5640 5652 5662 5671 5680 5688 5694
5581 5571 5561 5551 5540 5530 5521 5513 5505 5499 5493 5489 5486 5485 5485 5487 5490 5494 5499 5504 5509 5515 5520 5525 5530 5535 5539 5544 5548 5554 5560 5568 5578 5591 5605 5619 5633 5645 5655 5665 5673 5681 5688
5579 5570 5560 5550 5540 5531 5522 5514 5507 5502 5497 5493 5490 5489 5489 5490 5493 5496 5501 5505 5509 5513 5518 5522 5526 5530 5534 5538 5542 5547 5553 5562 5573 5586 5600 5613 5626 5638 5649 5659 5667 5675 5682
5578 5569 5560 5550 5541 5532 5524 5516 5510 5504 5499 5496 5493 5492 5492 5494 5496 5499 5502 5505 5509 5512 5516 5519 5523 5526 5529 5532 5536 5542 5548 5558 5569 5583 5596 5609 5621 5633 5644 5653 5661 5668 5675
5577 5569 5560 5551 5542 5533 5525 5518 5512 5506 5502 5499 5497 5496 5496 5496 5498 5501 5503 5506 5509 5512 5514 5517 5520 5522 5525 5528 5532 5538 5545 5555 5567 5580 5593 5605 5616 5628 5638 5647 5655 5663 5669
5577 5569 5561 5552 5543 5535 5527 5520 5513 5508 5504 5501 5500 5498 5498 5499 5501 5502 5505 5507 5509 5511 5513 5515 5517 5519 5521 5524 5529 5535 5543 5553 5565 5578 5590 5602 5612 5623 5633 5642 5650 5657 5664
5576 5569 5562 5554 5545 5537 5529 5522 5516 5511 5507 5504 5502 5501 5501 5501 5503 5504 5506 5507 5509 5511 5512 5513 5515 5517 5519 5522 5527 5534 5543 5553 5564 5576 5588 5599 5610 5620 5629 5638 5645 5653 5659
5576 5570 5563 5555 5548 5540 5532 5525 5519 5514 5509 5506 5504 5503 5503 5504 5505 5506 5507 5508 5509 5511 5512 5513 5515 5517 5520 5524 5529 5537 5546 5555 5566 5577 5588 5599 5609 5618 5627 5635 5642 5649 5655
5577 5571 5565 5558 5550 5543 5536 5529 5523 5518 5513 5510 5507 5506 5506 5506 5507 5508 5509 5510 5511 5512 5512 5514 5516 5519 5523 5527 5533 5541 5549 5558 5569 5579 5590 5600 5609 5618 5625 5633 5639 5646 5652
5577 5572 5566 5560 5553 5547 5540 5533 5528 5522 5518 5514 5511 5510 5509 5509 5509 5510 5510 5511 5512 5513 5514 5516 5519 5523 5527 5532 5538 5545 5554 5563 5573 5583 5592 5601 5609 5617 5624 5630 5636 5642 5648
5577 5572 5567 5562 5557 5550 5544 5538 5533 5528 5523 5520 5516 5514 5513 5513 5513 5513 5513 5514 5515 5516 5517 5520 5523 5527 5532 5537 5544 5551 5559 5568 5577 5586 5594 5602 5609 5616 5622 5628 5634 5639 5644